Location: LDNL
(36.4545°S, 141.6685°E)
Time: 06:28:01
(UTC+10:00)

Transit 2A - All Passes

Search period start: 10 August 2022 00:00
Search period end: 20 August 2022 00:00
Orbit: 601 x 956 km, 66.7° (Epoch: 09 August)

Date Brightness Start Highest point End Pass type
(mag) Time Alt. Az. Time Alt. Az. Time Alt. Az.
10 Aug - 01:39:44 10° W 01:44:08 22° SW 01:48:50 10° S night (unlit)
10 Aug - 08:44:35 10° S 08:50:19 34° SE 08:55:47 10° ENE daylight
10 Aug - 10:27:48 10° SW 10:33:37 40° WNW 10:39:05 10° N daylight
10 Aug - 23:21:10 10° N 23:26:12 39° ENE 23:31:44 10° SE night (unlit)
11 Aug - 01:04:34 10° WNW 01:09:30 31° SW 01:14:52 10° S night (unlit)
11 Aug - 08:10:34 10° S 08:15:42 25° SE 08:20:39 10° ENE daylight
11 Aug - 09:53:11 10° SW 09:59:23 58° WNW 10:05:11 10° N daylight
11 Aug - 22:47:34 10° NNE 22:52:03 26° ENE 22:56:54 10° SE night (unlit)
12 Aug - 00:29:39 10° NW 00:34:57 43° SW 00:40:46 10° SSE night (unlit)
12 Aug - 07:36:44 10° S 07:41:01 18° SE 07:45:11 10° E daylight
12 Aug - 09:18:43 10° SSW 09:25:06 84° WNW 09:31:03 10° NNE daylight
12 Aug - 11:06:01 10° W 11:07:15 11° W 11:08:28 10° WNW daylight
12 Aug - 22:14:26 10° NE 22:17:58 17° ENE 22:21:42 10° ESE night (unlit)
12 Aug - 23:55:00 10° NW 00:00:29 62° WSW 00:06:33 10° SSE night (unlit)
13 Aug - 01:43:08 10° WSW 01:45:06 12° SW 01:47:07 10° SSW night (unlit)
13 Aug - 07:03:11 10° SSE 07:06:15 14° SE 07:09:16 10° ESE daylight
13 Aug - 08:44:21 10° SSW 08:50:44 70° ESE 08:56:40 10° NE daylight
13 Aug - 10:29:24 10° WSW 10:33:13 17° WNW 10:36:53 10° NW daylight
13 Aug - 21:42:36 10° ENE 21:43:57 11° E 21:45:20 10° E night (unlit)
13 Aug - 23:20:34 10° NNW 23:26:05 89° WSW 23:32:14 10° SSE night (unlit)
14 Aug - 01:06:49 10° W 01:10:18 16° SW 01:13:56 10° S night (unlit)
14 Aug - 08:10:07 10° SSW 08:16:16 49° ESE 08:22:04 10° NE daylight
14 Aug - 09:54:09 10° SW 09:59:08 25° WNW 10:03:51 10° NNW daylight
14 Aug - 22:46:21 10° NNW 22:51:46 63° ENE 22:57:48 10° SSE night (unlit)
15 Aug - 00:31:13 10° W 00:35:35 22° SW 00:40:12 10° S night (unlit)
15 Aug - 07:35:58 10° SSW 07:41:45 35° SE 07:47:14 10° ENE daylight
15 Aug - 09:19:17 10° SW 09:24:59 37° WNW 09:30:20 10° N daylight
15 Aug - 22:12:24 10° N 22:17:33 42° ENE 22:23:13 10° SE night (unlit)
15 Aug - 23:56:00 10° WNW 00:00:56 29° SW 00:06:15 10° S night (unlit)
16 Aug - 07:01:56 10° S 07:07:10 26° SE 07:12:09 10° ENE daylight
16 Aug - 08:44:38 10° SW 08:50:47 55° WNW 08:56:29 10° N daylight
16 Aug - 21:38:44 10° NNE 21:43:24 28° ENE 21:48:25 10° SE night (unlit)
16 Aug - 23:21:03 10° NW 23:26:21 41° SW 23:32:10 10° SSE night (unlit)
17 Aug - 06:28:03 10° S 06:32:29 19° SE 06:36:45 10° E visible
17 Aug - 08:10:09 10° SSW 08:16:30 79° WNW 08:22:22 10° NNE daylight
17 Aug - 21:05:31 10° NE 21:09:18 19° ENE 21:13:19 10° ESE night (unlit)
17 Aug - 22:46:21 10° NW 22:51:52 58° WSW 22:57:58 10° SSE night (unlit)
18 Aug - 00:34:50 10° SW 00:36:34 11° SW 00:38:18 10° SSW night (unlit)
18 Aug - 05:54:28 10° S 05:57:43 14° SE 06:00:54 10° ESE visible
18 Aug - 07:35:47 10° SSW 07:42:08 73° ESE 07:48:01 10° NNE daylight
18 Aug - 09:21:03 10° WSW 09:24:33 16° WNW 09:27:55 10° NW daylight
18 Aug - 20:33:13 10° ENE 20:35:16 12° E 20:37:22 10° ESE night (unlit)
18 Aug - 22:11:52 10° NNW 22:17:28 84° WSW 22:23:39 10° SSE night (unlit)
18 Aug - 23:58:22 10° WSW 00:01:45 15° SW 00:05:15 10° S night (unlit)
19 Aug - 05:21:56 10° SSE 05:22:53 10° SE 05:23:49 10° SE visible
19 Aug - 07:01:31 10° SSW 07:07:42 52° ESE 07:13:27 10° NE daylight
19 Aug - 08:45:41 10° SW 08:50:29 24° WNW 08:55:01 10° NNW daylight
19 Aug - 21:37:38 10° NNW 21:43:09 67° ENE 21:49:14 10° SSE night (unlit)
19 Aug - 23:22:41 10° W 23:27:00 21° SW 23:31:33 10° S night (unlit)
